| time (UTC) | temp F | wind direction | speed knots | gust knots | rain 1hr in | rain 24hr in | rain mn in | humidity % | barometer mb |
| 20260510221155 | 83 | 329 | 0.9 | 0.9 | 0.00 | 0.00 | 0.00 | ||
| 20260510220653 | 82 | 280 | 1.7 | 0.9 | 0.00 | 0.00 | 0.00 | ||
| 20260510220154 | 82 | 31 | 2.6 | 0.9 | 0.00 | 0.00 | 0.00 | ||
| 20260510215652 | 83 | 55 | 1.7 | 2.6 | 0.00 | 0.00 | 0.00 | ||
| 20260510215154 | 83 | 283 | 1.7 | 5.2 | 0.00 | 0.00 | 0.00 | ||
| 20260510214652 | 83 | 148 | 1.7 | 0.9 | 0.00 | 0.00 | 0.00 | ||
| 20260510214153 | 83 | 193 | 2.6 | 3.5 | 0.00 | 0.00 | 0.00 | ||
| 20260510213651 | 83 | 11 | 1.7 | 0.9 | 0.00 | 0.00 | 0.00 | ||
| 20260510213152 | 83 | 23 | 0.9 | 1.7 | 0.00 | 0.00 | 0.00 | ||
| 20260510212650 | 83 | 169 | 3.5 | 5.2 | 0.00 | 0.00 | 0.00 | ||
| 20260510212151 | 83 | 4 | 2.6 | 2.6 | 0.00 | 0.00 | 0.00 | ||
| 20260510211649 | 83 | 89 | 0.0 | 0.0 | 0.00 | 0.00 | 0.00 | ||
| 20260510211150 | 82 | 121 | 1.7 | 4.3 | 0.00 | 0.00 | 0.00 | ||
| 20260510210648 | 82 | 139 | 5.2 | 6.1 | 0.00 | 0.00 | 0.00 | ||
| 20260510210149 | 82 | 139 | 7.8 | 7.0 | 0.00 | 0.00 | 0.00 | ||
| 20260510205647 | 83 | 158 | 3.5 | 5.2 | 0.00 | 0.00 | 0.00 | ||
| 20260510205148 | 83 | 134 | 4.3 | 5.2 | 0.00 | 0.00 | 0.00 | ||
| 20260510204646 | 83 | 56 | 1.7 | 0.9 | 0.00 | 0.00 | 0.00 | ||
| 20260510203644 | 83 | 107 | 0.9 | 0.0 | 0.00 | 0.00 | 0.00 | ||
| 20260510203145 | 83 | 76 | 3.5 | 0.9 | 0.00 | 0.00 | 0.00 | ||
| 20260510202644 | 85 | 122 | 4.3 | 3.5 | 0.00 | 0.00 | 0.00 | ||
| 20260510201642 | 86 | 127 | 0.9 | 2.6 | 0.00 | 0.00 | 0.00 | ||
| 20260510200642 | 87 | 218 | 0.0 | 0.0 | 0.00 | 0.00 | 0.00 | ||
| 20260510195641 | 86 | 231 | 0.0 | 0.0 | 0.00 | 0.00 | 0.00 | ||
| 20260510194639 | 87 | 252 | 0.0 | 3.5 | 0.00 | 0.00 | 0.00 | ||
| 20260510193638 | 87 | 311 | 1.7 | 2.6 | 0.00 | 0.00 | 0.00 | ||
| 20260510193139 | 87 | 305 | 2.6 | 3.5 | 0.00 | 0.00 | 0.00 | ||
| 20260510192637 | 87 | 93 | 0.0 | 1.7 | 0.00 | 0.00 | 0.00 | ||
| 20260510192138 | 87 | 336 | 0.0 | 3.5 | 0.00 | 0.00 | 0.00 | ||
| 20260510191636 | 86 | 304 | 0.0 | 0.0 | 0.00 | 0.00 | 0.00 | ||
| 20260510191137 | 87 | 312 | 2.6 | 0.9 | 0.00 | 0.00 | 0.00 | ||
| 20260510190635 | 86 | 308 | 1.7 | 3.5 | 0.00 | 0.00 | 0.00 | ||
| 20260510190136 | 86 | 98 | 0.0 | 0.0 | 0.00 | 0.00 | 0.00 | ||
| 20260510185634 | 86 | 293 | 0.0 | 0.0 | 0.00 | 0.00 | 0.00 | ||
| 20260510185135 | 87 | 200 | 0.0 | 0.0 | 0.00 | 0.00 | 0.00 | ||
| 20260510184633 | 87 | 333 | 1.7 | 1.7 | 0.00 | 0.00 | 0.00 | ||
| 20260510184134 | 86 | 293 | 2.6 | 4.3 | 0.00 | 0.00 | 0.00 | ||
| 20260510183633 | 86 | 11 | 0.9 | 2.6 | 0.00 | 0.00 | 0.00 | ||
| 20260510183134 | 85 | 89 | 1.7 | 1.7 | 0.00 | 0.00 | 0.00 | ||
| 20260510182632 | 85 | 136 | 2.6 | 2.6 | 0.00 | 0.00 | 0.00 | ||
| 20260510182133 | 87 | 165 | 1.7 | 1.7 | 0.00 | 0.00 | 0.00 | ||
| 20260510181631 | 86 | 302 | 0.9 | 0.0 | 0.00 | 0.00 | 0.00 | ||
| 20260510181132 | 85 | 44 | 1.7 | 0.9 | 0.00 | 0.00 | 0.00 | ||
| 20260510180630 | 86 | 260 | 0.0 | 0.9 | 0.00 | 0.00 | 0.00 | ||
| 20260510180131 | 86 | 260 | 0.0 | 0.0 | 0.00 | 0.00 | 0.00 | ||
| 20260510175628 | 86 | 260 | 3.5 | 0.0 | 0.00 | 0.00 | 0.00 | ||
| 20260510174624 | 86 | 277 | 1.7 | 0.9 | 0.00 | 0.00 | 0.00 | ||
| 20260510174125 | 86 | 242 | 0.9 | 0.0 | 0.00 | 0.00 | 0.00 | ||
| 20260510173623 | 85 | 323 | 0.0 | 0.0 | 0.00 | 0.00 | 0.00 | ||
| 20260510173124 | 85 | 323 | 0.0 | 0.0 | 0.00 | 0.00 | 0.00 | ||
| 20260510172622 | 84 | 56 | 0.9 | 0.0 | 0.00 | 0.00 | 0.00 | ||
| 20260510172123 | 85 | 319 | 0.0 | 2.6 | 0.00 | 0.00 | 0.00 | ||
| 20260510171621 | 86 | 326 | 0.0 | 0.0 | 0.00 | 0.00 | 0.00 | ||
| 20260510170621 | 85 | 118 | 0.9 | 2.6 | 0.00 | 0.00 | 0.00 | ||
| 20260510170122 | 85 | 260 | 2.6 | 0.0 | 0.00 | 0.00 | 0.00 | ||
| 20260510165620 | 85 | 238 | 0.9 | 3.5 | 0.00 | 0.00 | 0.00 | ||
| 20260510165121 | 85 | 236 | 2.6 | 0.0 | 0.00 | 0.00 | 0.00 | ||
| 20260510164619 | 85 | 267 | 1.7 | 0.0 | 0.00 | 0.00 | 0.00 | ||
| 20260510164120 | 85 | 249 | 3.5 | 1.7 | 0.00 | 0.00 | 0.00 | ||
| 20260510164034 | 86 | 330 | 2.6 | 2.6 | 0.00 | 0.00 | 0.00 | ||
| 20260510163628 | 84 | 257 | 0.0 | 2.6 | 0.00 | 0.00 | 0.00 | ||
| 20260510163618 | 86 | 330 | 2.6 | 2.6 | 0.00 | 0.00 | 0.00 | ||
| 20260510163119 | 84 | 257 | 0.0 | 2.6 | 0.00 | 0.00 | 0.00 | ||
| 20260510162117 | 84 | 270 | 0.9 | 0.0 | 0.00 | 0.00 | 0.00 | ||
| 20260510161116 | 85 | 325 | 0.9 | 1.7 | 0.00 | 0.00 | 0.00 | ||
| 20260510155613 | 83 | 162 | 0.9 | 1.7 | 0.00 | 0.00 | 0.00 | ||
| 20260510155212 | 81 | 72 | 1.7 | 0.9 | 0.00 | 0.00 | 0.00 | ||
| 20260510154612 | 81 | 72 | 1.7 | 0.9 | 0.00 | 0.00 | 0.00 | ||
| 20260510154113 | 82 | 288 | 0.0 | 3.5 | 0.00 | 0.00 | 0.00 | ||
| 20260510153611 | 81 | 277 | 0.9 | 0.0 | 0.00 | 0.00 | 0.00 | ||
| 20260510153112 | 81 | 333 | 1.7 | 0.9 | 0.00 | 0.00 | 0.00 | ||
| 20260510152610 | 80 | 276 | 0.0 | 0.0 | 0.00 | 0.00 | 0.00 | ||
| 20260510152111 | 79 | 136 | 0.0 | 0.9 | 0.00 | 0.00 | 0.00 | ||
| 20260510151607 | 79 | 55 | 0.9 | 0.9 | 0.00 | 0.00 | 0.00 | ||
| 20260510150607 | 79 | 308 | 0.9 | 1.7 | 0.00 | 0.00 | 0.00 | ||
| 20260510150400 | 77 | 248 | 0.9 | 0.0 | 0.00 | 0.00 | 0.00 | ||
| 20260510150108 | 77 | 58 | 0.0 | 0.0 | 0.00 | 0.00 | 0.00 | ||
| 20260510145606 | 77 | 248 | 0.9 | 0.0 | 0.00 | 0.00 | 0.00 | ||
| 20260510145535 | 77 | 328 | 2.6 | 1.7 | 0.00 | 0.00 | 0.00 | ||
| 20260510145149 | 76 | 336 | 2.6 | 0.9 | 0.00 | 0.00 | 0.00 | ||
| 20260510145107 | 77 | 328 | 2.6 | 1.7 | 0.00 | 0.00 | 0.00 | ||
| 20260510144606 | 76 | 336 | 2.6 | 0.9 | 0.00 | 0.00 | 0.00 | ||
| 20260510144351 | 76 | 132 | 0.0 | 0.0 | 0.00 | 0.00 | 0.00 | ||
| 20260510143605 | 76 | 132 | 0.0 | 0.0 | 0.00 | 0.00 | 0.00 | ||
| 20260510143334 | 75 | 21 | 1.7 | 0.0 | 0.00 | 0.00 | 0.00 | ||
| 20260510143106 | 75 | 128 | 0.0 | 1.7 | 0.00 | 0.00 | 0.00 | ||
| 20260510142607 | 74 | 305 | 1.7 | 1.7 | 0.00 | 0.00 | 0.00 | ||
| 20260510142604 | 75 | 21 | 1.7 | 0.0 | 0.00 | 0.00 | 0.00 | ||
| 20260510142132 | 74 | 257 | 0.0 | 0.9 | 0.00 | 0.00 | 0.00 | ||
| 20260510142105 | 74 | 305 | 1.7 | 1.7 | 0.00 | 0.00 | 0.00 | ||
| 20260510141603 | 74 | 257 | 0.0 | 0.9 | 0.00 | 0.00 | 0.00 | ||
| 20260510141339 | 73 | 326 | 1.7 | 1.7 | 0.00 | 0.00 | 0.00 | ||
| 20260510140603 | 73 | 326 | 1.7 | 1.7 | 0.00 | 0.00 | 0.00 | ||
| 20260510135542 | 71 | 240 | 0.9 | 1.7 | 0.00 | 0.00 | 0.00 | ||
| 20260510135102 | 71 | 240 | 0.9 | 1.7 | 0.00 | 0.00 | 0.00 | ||
| 20260510134600 | 71 | 239 | 2.6 | 3.5 | 0.00 | 0.00 | 0.00 | ||
| 20260510134254 | 71 | 280 | 0.0 | 2.6 | 0.00 | 0.00 | 0.00 | ||
| 20260510134101 | 71 | 280 | 0.0 | 2.6 | 0.00 | 0.00 | 0.00 | ||
| 20260510133558 | 71 | 273 | 0.9 | 1.7 | 0.00 | 0.00 | 0.00 | ||
| 20260510133339 | 70 | 208 | 0.9 | 0.9 | 0.00 | 0.00 | 0.00 | ||
| 20260510133059 | 70 | 208 | 0.9 | 0.9 | 0.00 | 0.00 | 0.00 | ||
| 20260510133021 | 70 | 280 | 1.7 | 1.7 | 0.00 | 0.00 | 0.00 | ||
| 20260510132558 | 70 | 280 | 1.7 | 1.7 | 0.00 | 0.00 | 0.00 | ||
| 20260510132511 | 70 | 342 | 1.7 | 2.6 | 0.00 | 0.00 | 0.00 | ||
| 20260510132058 | 70 | 342 | 1.7 | 2.6 | 0.00 | 0.00 | 0.00 | ||
| 20260510131556 | 70 | 312 | 0.9 | 1.7 | 0.00 | 0.00 | 0.00 | ||
| 20260510130907 | 69 | 194 | 0.0 | 0.0 | 0.00 | 0.00 | 0.00 | ||
| 20260510130554 | 69 | 194 | 0.0 | 0.0 | 0.00 | 0.00 | 0.00 | ||
| 20260510130316 | 70 | 307 | 2.6 | 1.7 | 0.00 | 0.00 | 0.00 | ||
| 20260510130055 | 70 | 307 | 2.6 | 1.7 | 0.00 | 0.00 | 0.00 | ||
| 20260510125845 | 69 | 349 | 2.6 | 3.5 | 0.00 | 0.00 | 0.00 | ||
| 20260510125551 | 69 | 349 | 2.6 | 3.5 | 0.00 | 0.00 | 0.00 | ||
| 20260510125330 | 69 | 0 | 0.9 | 0.9 | 0.00 | 0.00 | 0.00 | ||
| 20260510125052 | 69 | 0 | 0.9 | 0.9 | 0.00 | 0.00 | 0.00 | ||
| 20260510124738 | 70 | 322 | 0.0 | 0.0 | 0.00 | 0.00 | 0.00 | ||
| 20260510124549 | 70 | 322 | 0.0 | 0.0 | 0.00 | 0.00 | 0.00 | ||
| 20260510123354 | 68 | 322 | 1.7 | 1.7 | 0.00 | 0.00 | 0.00 | ||
| 20260510123050 | 68 | 322 | 1.7 | 1.7 | 0.00 | 0.00 | 0.00 | ||
| 20260510122354 | 69 | 11 | 0.0 | 0.0 | 0.00 | 0.00 | 0.00 | ||
| 20260510122232 | 68 | 323 | 0.9 | 1.7 | 0.00 | 0.00 | 0.00 | ||
| 20260510122050 | 69 | 11 | 0.0 | 0.0 | 0.00 | 0.00 | 0.00 | ||
| 20260510121548 | 68 | 323 | 0.9 | 1.7 | 0.00 | 0.00 | 0.00 | ||
| 20260510121050 | 68 | 347 | 1.7 | 0.9 | 0.00 | 0.00 | 0.00 | ||
| 20260510120547 | 68 | 347 | 1.7 | 0.9 | 0.00 | 0.00 | 0.00 | ||
| 20260510120459 | 67 | 249 | 0.0 | 0.0 | 0.00 | 0.00 | 0.00 | ||
| 20260510120049 | 67 | 249 | 0.0 | 0.0 | 0.00 | 0.00 | 0.00 | ||
| 20260510115043 | 67 | 263 | 0.9 | 0.0 | 0.00 | 0.00 | 0.00 | ||
| 20260510113501 | 68 | 335 | 0.0 | 0.0 | 0.00 | 0.00 | 0.00 | ||
| 20260510113037 | 66 | 335 | 0.0 | 0.0 | 0.00 | 0.00 | 0.00 | ||
| 20260510112533 | 66 | 335 | 0.0 | 0.0 | 0.00 | 0.00 | 0.00 | ||
| 20260510112034 | 66 | 335 | 0.0 | 0.0 | 0.00 | 0.00 | 0.00 | ||
| 20260510111825 | 66 | 335 | 0.0 | 0.0 | 0.00 | 0.00 | 0.00 | ||
| 20260510111531 | 66 | 335 | 0.0 | 0.0 | 0.00 | 0.00 | 0.00 | ||
| 20260510111459 | 66 | 335 | 0.0 | 0.0 | 0.00 | 0.00 | 0.00 | ||
| 20260510111154 | 66 | 335 | 0.0 | 0.0 | 0.00 | 0.00 | 0.00 | ||
| 20260510111032 | 66 | 335 | 0.0 | 0.0 | 0.00 | 0.00 | 0.00 | ||
| 20260510110531 | 66 | 335 | 0.0 | 0.0 | 0.00 | 0.00 | 0.00 | ||
| 20260510110410 | 66 | 346 | 0.0 | 0.0 | 0.00 | 0.00 | 0.00 | ||
| 20260510110032 | 66 | 345 | 0.0 | 0.9 | 0.00 | 0.00 | 0.00 | ||
| 20260510105528 | 66 | 346 | 0.0 | 0.0 | 0.00 | 0.00 | 0.00 | ||
| 20260510105029 | 66 | 346 | 0.0 | 0.0 | 0.00 | 0.00 | 0.00 | ||
| 20260510104948 | 66 | 346 | 0.0 | 0.0 | 0.00 | 0.00 | 0.00 | ||
| 20260510104526 | 66 | 346 | 0.0 | 0.0 | 0.00 | 0.00 | 0.00 | ||
| 20260510103813 | 67 | 342 | 0.0 | 0.0 | 0.00 | 0.00 | 0.00 | ||
| 20260510103522 | 66 | 342 | 0.0 | 0.0 | 0.00 | 0.00 | 0.00 | ||
| 20260510102522 | 67 | 342 | 0.0 | 0.0 | 0.00 | 0.00 | 0.00 | ||
| 20260510102023 | 66 | 342 | 0.0 | 0.0 | 0.00 | 0.00 | 0.00 | ||
| 20260510100521 | 67 | 342 | 0.0 | 0.0 | 0.00 | 0.00 | 0.00 | ||
| 20260510095858 | 66 | 343 | 0.0 | 0.0 | 0.00 | 0.00 | 0.00 | ||
| 20260510095518 | 66 | 343 | 0.0 | 0.0 | 0.00 | 0.00 | 0.00 | ||
| 20260510095306 | 67 | 343 | 0.0 | 0.0 | 0.00 | 0.00 | 0.00 | ||
| 20260510095113 | 67 | 343 | 0.0 | 0.0 | 0.00 | 0.00 | 0.00 | ||
| 20260510095019 | 67 | 343 | 0.0 | 0.0 | 0.00 | 0.00 | 0.00 | ||
| 20260510094517 | 67 | 343 | 0.0 | 0.0 | 0.00 | 0.00 | 0.00 | ||
| 20260510094447 | 66 | 343 | 0.0 | 0.0 | 0.00 | 0.00 | 0.00 | ||
| 20260510094018 | 66 | 343 | 0.0 | 0.0 | 0.00 | 0.00 | 0.00 | ||
| 20260510093520 | 67 | 343 | 0.0 | 0.0 | 0.00 | 0.00 | 0.00 | ||
| 20260510093516 | 66 | 343 | 0.0 | 0.0 | 0.00 | 0.00 | 0.00 | ||
| 20260510093017 | 67 | 343 | 0.0 | 0.0 | 0.00 | 0.00 | 0.00 | ||
| 20260510092515 | 66 | 343 | 0.0 | 0.0 | 0.00 | 0.00 | 0.00 | ||
| 20260510092015 | 66 | 343 | 0.0 | 0.0 | 0.00 | 0.00 | 0.00 | ||
| 20260510091549 | 67 | 343 | 0.0 | 0.0 | 0.00 | 0.00 | 0.00 | ||
| 20260510091513 | 67 | 343 | 0.0 | 0.0 | 0.00 | 0.00 | 0.00 | ||
| 20260510091111 | 67 | 343 | 0.0 | 0.0 | 0.00 | 0.00 | 0.00 | ||
| 20260510091015 | 67 | 343 | 0.0 | 0.0 | 0.00 | 0.00 | 0.00 | ||
| 20260510090510 | 67 | 343 | 0.0 | 0.0 | 0.00 | 0.00 | 0.00 | ||
| 20260510090439 | 67 | 343 | 0.0 | 0.0 | 0.00 | 0.00 | 0.00 | ||
| 20260510090011 | 67 | 343 | 0.0 | 0.0 | 0.00 | 0.00 | 0.00 | ||
| 20260510085509 | 66 | 343 | 0.0 | 0.0 | 0.00 | 0.00 | 0.00 | ||
| 20260510085010 | 67 | 343 | 0.0 | 0.0 | 0.00 | 0.00 | 0.00 | ||
| 20260510084508 | 67 | 343 | 0.0 | 0.0 | 0.00 | 0.00 | 0.00 | ||
| 20260510084219 | 68 | 343 | 0.0 | 0.0 | 0.00 | 0.00 | 0.00 | ||
| 20260510084009 | 67 | 343 | 0.0 | 0.0 | 0.00 | 0.00 | 0.00 | ||
| 20260510083507 | 68 | 343 | 0.0 | 0.0 | 0.00 | 0.00 | 0.00 | ||
| 20260510083335 | 68 | 343 | 0.0 | 0.0 | 0.00 | 0.00 | 0.00 | ||
| 20260510083008 | 68 | 343 | 0.0 | 0.0 | 0.00 | 0.00 | 0.00 | ||
| 20260510082506 | 68 | 343 | 0.0 | 0.0 | 0.00 | 0.00 | 0.00 | ||
| 20260510082007 | 67 | 343 | 0.0 | 0.0 | 0.00 | 0.00 | 0.00 | ||
| 20260510081754 | 68 | 343 | 0.0 | 0.0 | 0.00 | 0.00 | 0.00 | ||
| 20260510081506 | 68 | 343 | 0.0 | 0.0 | 0.00 | 0.00 | 0.00 | ||
| 20260510081007 | 66 | 343 | 0.0 | 0.0 | 0.00 | 0.00 | 0.00 | ||
| 20260510080503 | 67 | 326 | 0.0 | 0.0 | 0.00 | 0.00 | 0.00 | ||
| 20260510080004 | 67 | 326 | 0.0 | 0.0 | 0.00 | 0.00 | 0.00 | ||
| 20260510075502 | 68 | 346 | 0.0 | 0.0 | 0.00 | 0.00 | 0.00 | ||
| 20260510075003 | 66 | 346 | 0.9 | 0.0 | 0.00 | 0.00 | 0.00 | ||
| 20260510074501 | 67 | 342 | 0.9 | 0.0 | 0.00 | 0.00 | 0.00 | ||
| 20260510074002 | 68 | 340 | 0.0 | 0.0 | 0.00 | 0.00 | 0.00 | ||
| 20260510073002 | 68 | 340 | 0.0 | 0.0 | 0.00 | 0.00 | 0.00 | ||
| 20260510072917 | 68 | 347 | 0.0 | 0.0 | 0.00 | 0.00 | 0.00 | ||
| 20260510072500 | 68 | 347 | 0.0 | 0.0 | 0.00 | 0.00 | 0.00 | ||
| 20260510071000 | 68 | 347 | 0.9 | 0.9 | 0.00 | 0.00 | 0.00 | ||
| 20260510070458 | 68 | 346 | 0.9 | 0.9 | 0.00 | 0.00 | 0.00 | ||
| 20260510070234 | 68 | 350 | 0.9 | 0.9 | 0.00 | 0.00 | 0.00 | ||
| 20260510070000 | 68 | 350 | 0.9 | 0.9 | 0.00 | 0.00 | 0.00 | ||
| 20260510065458 | 68 | 349 | 0.9 | 0.0 | 0.00 | 0.00 | 0.00 | ||
| 20260510065138 | 68 | 350 | 0.0 | 0.0 | 0.00 | 0.00 | 0.00 | ||
| 20260510064959 | 68 | 350 | 0.0 | 0.0 | 0.00 | 0.00 | 0.00 | ||
| 20260510064730 | 68 | 354 | 0.0 | 1.7 | 0.00 | 0.00 | 0.00 | ||
| 20260510064457 | 68 | 354 | 0.0 | 1.7 | 0.00 | 0.00 | 0.00 | ||
| 20260510064254 | 68 | 240 | 0.0 | 0.0 | 0.00 | 0.00 | 0.00 | ||
| 20260510063959 | 68 | 240 | 0.0 | 0.0 | 0.00 | 0.00 | 0.00 | ||
| 20260510063804 | 68 | 240 | 0.0 | 0.0 | 0.00 | 0.00 | 0.00 | ||
| 20260510063457 | 68 | 240 | 0.0 | 0.0 | 0.00 | 0.00 | 0.00 | ||
| 20260510062958 | 68 | 240 | 0.0 | 0.0 | 0.00 | 0.00 | 0.00 | ||
| 20260510062714 | 67 | 240 | 0.0 | 0.0 | 0.00 | 0.00 | 0.00 | ||
| 20260510062456 | 67 | 240 | 0.0 | 0.0 | 0.00 | 0.00 | 0.00 | ||
| 20260510061957 | 67 | 240 | 0.0 | 0.0 | 0.00 | 0.00 | 0.00 | ||
| 20260510061455 | 67 | 240 | 0.0 | 0.0 | 0.00 | 0.00 | 0.00 | ||
| 20260510060956 | 68 | 240 | 0.0 | 0.0 | 0.00 | 0.00 | 0.00 | ||
| 20260510060455 | 67 | 248 | 0.0 | 0.0 | 0.00 | 0.00 | 0.00 | ||
| 20260510060324 | 67 | 248 | 0.0 | 0.9 | 0.00 | 0.00 | 0.00 | ||
| 20260510055956 | 67 | 248 | 0.0 | 0.9 | 0.00 | 0.00 | 0.00 | ||
| 20260510055454 | 68 | 248 | 0.0 | 0.0 | 0.00 | 0.00 | 0.00 | ||
| 20260510055344 | 68 | 276 | 0.0 | 0.0 | 0.00 | 0.00 | 0.00 | ||
| 20260510054955 | 68 | 276 | 0.0 | 0.0 | 0.00 | 0.00 | 0.00 | ||
| 20260510054453 | 67 | 276 | 0.0 | 0.0 | 0.00 | 0.00 | 0.00 | ||
| 20260510053954 | 68 | 276 | 0.0 | 0.0 | 0.00 | 0.00 | 0.00 | ||
| 20260510053805 | 67 | 276 | 0.0 | 0.0 | 0.00 | 0.00 | 0.00 | ||
| 20260510053453 | 67 | 276 | 0.0 | 0.0 | 0.00 | 0.00 | 0.00 | ||
| 20260510053422 | 68 | 276 | 0.0 | 0.0 | 0.00 | 0.00 | 0.00 | ||
| 20260510052953 | 68 | 276 | 0.0 | 0.0 | 0.00 | 0.00 | 0.00 | ||
| 20260510052836 | 68 | 276 | 0.0 | 0.0 | 0.00 | 0.00 | 0.00 | ||
| 20260510052455 | 67 | 276 | 0.0 | 0.0 | 0.00 | 0.00 | 0.00 | ||
| 20260510052451 | 68 | 276 | 0.0 | 0.0 | 0.00 | 0.00 | 0.00 | ||
| 20260510051952 | 67 | 276 | 0.0 | 0.0 | 0.00 | 0.00 | 0.00 | ||
| 20260510051451 | 68 | 276 | 0.0 | 0.0 | 0.00 | 0.00 | 0.00 | ||
| 20260510050952 | 67 | 276 | 0.0 | 0.0 | 0.00 | 0.00 | 0.00 | ||
| 20260510050851 | 67 | 311 | 0.0 | 0.0 | 0.00 | 0.00 | 0.00 | ||
| 20260510050450 | 67 | 311 | 0.0 | 0.0 | 0.00 | 0.00 | 0.00 | ||
| 20260510050338 | 68 | 311 | 0.0 | 0.0 | 0.00 | 0.00 | 0.00 | ||
| 20260510045952 | 68 | 311 | 0.0 | 0.0 | 0.00 | 0.00 | 0.00 | ||
| 20260510045448 | 67 | 311 | 0.0 | 0.0 | 0.00 | 0.00 | 0.00 | ||
| 20260510045054 | 67 | 311 | 0.0 | 0.0 | 0.00 | 0.00 | 0.00 | ||
| 20260510044949 | 68 | 311 | 0.0 | 0.0 | 0.00 | 0.00 | 0.00 | ||
| 20260510044446 | 67 | 311 | 0.0 | 0.0 | 0.00 | 0.00 | 0.00 | ||
| 20260510043703 | 68 | 311 | 0.0 | 0.0 | 0.00 | 0.00 | 0.00 | ||
| 20260510043444 | 68 | 311 | 0.0 | 0.0 | 0.00 | 0.00 | 0.00 | ||
| 20260510042945 | 67 | 311 | 0.0 | 0.0 | 0.00 | 0.00 | 0.00 | ||
| 20260510042443 | 66 | 311 | 0.0 | 0.0 | 0.00 | 0.00 | 0.00 | ||
| 20260510041945 | 67 | 311 | 0.0 | 0.0 | 0.00 | 0.00 | 0.00 | ||
| 20260510041441 | 67 | 311 | 0.0 | 0.0 | 0.00 | 0.00 | 0.00 | ||
| 20260510041105 | 68 | 311 | 0.0 | 0.0 | 0.00 | 0.00 | 0.00 | ||
| 20260510040942 | 67 | 311 | 0.0 | 0.0 | 0.00 | 0.00 | 0.00 | ||
| 20260510040440 | 68 | 311 | 0.0 | 0.0 | 0.00 | 0.00 | 0.00 | ||
| 20260510035941 | 68 | 311 | 0.0 | 0.0 | 0.00 | 0.00 | 0.00 | ||
| 20260510035651 | 68 | 311 | 0.0 | 0.0 | 0.00 | 0.00 | 0.00 | ||
| 20260510035440 | 68 | 311 | 0.0 | 0.0 | 0.00 | 0.00 | 0.00 | ||
| 20260510034508 | 68 | 311 | 0.0 | 0.0 | 0.00 | 0.00 | 0.00 | ||
| 20260510034437 | 68 | 311 | 0.0 | 0.0 | 0.00 | 0.00 | 0.00 | ||
| 20260510033938 | 67 | 311 | 0.0 | 0.0 | 0.00 | 0.00 | 0.00 | ||
| 20260510033436 | 68 | 311 | 0.0 | 0.0 | 0.00 | 0.00 | 0.00 | ||
| 20260510032938 | 68 | 311 | 0.0 | 0.0 | 0.00 | 0.00 | 0.00 | ||
| 20260510032851 | 69 | 311 | 0.0 | 0.0 | 0.00 | 0.00 | 0.00 | ||
| 20260510032436 | 69 | 311 | 0.0 | 0.0 | 0.00 | 0.00 | 0.00 | ||
| 20260510032038 | 68 | 311 | 0.0 | 0.0 | 0.00 | 0.00 | 0.00 | ||
| 20260510031937 | 68 | 311 | 0.0 | 0.0 | 0.00 | 0.00 | 0.00 | ||
| 20260510031434 | 68 | 311 | 0.0 | 0.0 | 0.00 | 0.00 | 0.00 | ||
| 20260510030936 | 69 | 311 | 0.0 | 0.0 | 0.00 | 0.00 | 0.00 | ||
| 20260510030433 | 69 | 311 | 0.0 | 0.0 | 0.00 | 0.00 | 0.00 | ||
| 20260510030034 | 69 | 311 | 0.0 | 0.0 | 0.00 | 0.00 | 0.00 | ||
| 20260510025934 | 69 | 311 | 0.0 | 0.0 | 0.00 | 0.00 | 0.00 | ||
| 20260510025535 | 69 | 311 | 0.0 | 0.0 | 0.00 | 0.00 | 0.00 | ||
| 20260510025432 | 69 | 311 | 0.0 | 0.0 | 0.00 | 0.00 | 0.00 | ||
| 20260510023957 | 69 | 311 | 0.0 | 0.0 | 0.00 | 0.00 | 0.00 | ||
| 20260510023933 | 69 | 311 | 0.0 | 0.0 | 0.00 | 0.00 | 0.00 | ||
| 20260510023431 | 69 | 311 | 0.0 | 0.0 | 0.00 | 0.00 | 0.00 | ||
| 20260510023117 | 70 | 311 | 0.0 | 0.0 | 0.00 | 0.00 | 0.00 | ||
| 20260510022430 | 69 | 311 | 0.0 | 0.0 | 0.00 | 0.00 | 0.00 | ||
| 20260510021931 | 70 | 311 | 0.0 | 0.0 | 0.00 | 0.00 | 0.00 | ||
| 20260510021429 | 70 | 311 | 0.0 | 0.0 | 0.00 | 0.00 | 0.00 | ||
| 20260510020930 | 70 | 311 | 0.0 | 0.0 | 0.00 | 0.00 | 0.00 | ||
| 20260510020133 | 70 | 311 | 0.0 | 0.0 | 0.00 | 0.00 | 0.00 | ||
| 20260510015929 | 70 | 311 | 0.0 | 0.0 | 0.00 | 0.00 | 0.00 | ||
| 20260510015428 | 70 | 311 | 0.0 | 0.0 | 0.00 | 0.00 | 0.00 | ||
| 20260510014929 | 70 | 311 | 0.0 | 0.0 | 0.00 | 0.00 | 0.00 | ||
| 20260510014427 | 70 | 311 | 0.0 | 0.0 | 0.00 | 0.00 | 0.00 | ||
| 20260510013836 | 71 | 311 | 0.0 | 0.0 | 0.00 | 0.00 | 0.00 | ||
| 20260510013426 | 70 | 311 | 0.0 | 0.0 | 0.00 | 0.00 | 0.00 | ||
| 20260510012425 | 71 | 311 | 0.0 | 0.0 | 0.00 | 0.00 | 0.00 | ||
| 20260510011927 | 70 | 311 | 0.0 | 0.0 | 0.00 | 0.00 | 0.00 | ||
| 20260510011425 | 71 | 311 | 0.0 | 0.0 | 0.00 | 0.00 | 0.00 | ||
| 20260510010926 | 70 | 311 | 0.0 | 0.0 | 0.00 | 0.00 | 0.00 | ||
| 20260510010615 | 71 | 311 | 0.0 | 0.0 | 0.00 | 0.00 | 0.00 | ||
| 20260510010424 | 71 | 311 | 0.0 | 0.0 | 0.00 | 0.00 | 0.00 | ||
| 20260510005925 | 71 | 311 | 0.0 | 0.0 | 0.00 | 0.00 | 0.00 | ||
| 20260510005424 | 71 | 311 | 0.0 | 0.0 | 0.00 | 0.00 | 0.00 | ||
| 20260510005300 | 72 | 311 | 0.0 | 0.0 | 0.00 | 0.00 | 0.00 | ||
| 20260510004925 | 71 | 311 | 0.0 | 0.0 | 0.00 | 0.00 | 0.00 | ||
| 20260510004423 | 72 | 311 | 0.0 | 0.0 | 0.00 | 0.00 | 0.00 | ||
| 20260510003924 | 72 | 311 | 0.0 | 0.0 | 0.00 | 0.00 | 0.00 | ||
| 20260510003423 | 72 | 311 | 0.0 | 0.0 | 0.00 | 0.00 | 0.00 | ||
| 20260510002924 | 72 | 311 | 0.0 | 0.0 | 0.00 | 0.00 | 0.00 | ||
| 20260510002422 | 73 | 311 | 0.0 | 0.0 | 0.00 | 0.00 | 0.00 | ||
| 20260510001922 | 73 | 311 | 0.0 | 0.0 | 0.00 | 0.00 | 0.00 | ||
| 20260510001420 | 73 | 311 | 0.0 | 0.0 | 0.00 | 0.00 | 0.00 | ||
| 20260510000921 | 73 | 311 | 0.0 | 0.0 | 0.00 | 0.00 | 0.00 | ||
| 20260510000420 | 73 | 311 | 0.0 | 0.0 | 0.00 | 0.00 | 0.00 | ||
| 20260509235419 | 73 | 311 | 0.0 | 0.0 | 0.00 | 0.00 | 0.00 | ||
| 20260509234920 | 74 | 311 | 0.0 | 0.0 | 0.00 | 0.00 | 0.00 | ||
| 20260509234418 | 74 | 311 | 0.0 | 0.0 | 0.00 | 0.00 | 0.00 | ||
| 20260509233920 | 74 | 311 | 0.0 | 0.0 | 0.00 | 0.00 | 0.00 | ||
| 20260509232919 | 75 | 311 | 0.0 | 0.0 | 0.00 | 0.00 | 0.00 | ||
| 20260509232417 | 75 | 311 | 0.0 | 0.0 | 0.00 | 0.00 | 0.00 | ||
| 20260509231918 | 76 | 311 | 0.0 | 0.0 | 0.00 | 0.00 | 0.00 | ||
| 20260509230918 | 76 | 311 | 0.0 | 0.0 | 0.00 | 0.00 | 0.00 | ||
| 20260509230416 | 76 | 311 | 0.0 | 0.0 | 0.00 | 0.00 | 0.00 | ||
| 20260509225917 | 76 | 345 | 0.0 | 0.0 | 0.00 | 0.00 | 0.00 | ||
| 20260509225415 | 76 | 18 | 0.0 | 0.0 | 0.00 | 0.00 | 0.00 | ||
| 20260509224916 | 76 | 13 | 0.0 | 0.0 | 0.00 | 0.00 | 0.00 | ||
| 20260509224415 | 76 | 13 | 1.7 | 0.0 | 0.00 | 0.00 | 0.00 | ||
| 20260509223916 | 76 | 332 | 0.9 | 1.7 | 0.00 | 0.00 | 0.00 | ||
| 20260509223414 | 77 | 24 | 0.9 | 0.0 | 0.00 | 0.00 | 0.00 | ||
| 20260509222915 | 76 | 347 | 1.7 | 0.0 | 0.00 | 0.00 | 0.00 | ||
| 20260509222413 | 77 | 356 | 1.7 | 0.0 | 0.00 | 0.00 | 0.00 | ||
| 20260509221914 | 77 | 352 | 0.9 | 1.7 | 0.00 | 0.00 | 0.00 | ||
| 20260509221413 | 78 | 353 | 0.0 | 0.0 | 0.00 | 0.00 | 0.00 |